CORVUS BC2

Last updated on Mon Sep 21 2026 00:03:44 GMT+0000 (Coordinated Universal Time)

1 42846U 17042X 26263.43924489 .00002231 00000+0 15359-3 0 9993 2 42846 97.4185 61.1895 0013887 140.5252 219.6991 15.06793939501405
UTC large
Height (km)
Speed (km/s)
/
Latitude / Longitude
Inclination (degrees)
Orbital Period (minutes)
Azimuth
Elevation
Range (km)
Doppler Factor

Next 0 passes for location: London (51.5072 / 0.1276)

No passes found over London.
CORVUS BC2